Terminal Aerodrome Forecast
Issued by NWS Duluth, MN

Home | Current Version | Previous Version | Text Only | Print | Product List | Glossary On
Versions: 1 2 3 4 5 6 7 8 9 10 11 12 13 14 15 16 17 18 19 20 21 22 23 24 25 26
000
FTUS43 KDLH 242153 AAA
TAFINL
TAF AMD
KINL 242153Z 2422/2518 VRB03KT 1 1/2SM RA BR FEW018 OVC035
     FM250200 09012KT 2SM -RA BR OVC008
     FM250800 04008KT 2SM -RA BR BKN003 OVC005
     FM251100 01010KT 5SM BR BKN008 OVC020=

USA.gov is the U.S. government's official web portal to all federal, state and local government web resources and services.